GAOFEN-1 04

Last updated on Tue Sep 16 2025 00:02:31 GMT+0000 (Coordinated Universal Time)

1 43262U 18031D 25258.71094472 .00000457 00000+0 72916-4 0 9990 2 43262 97.9973 316.4654 0000948 112.9090 247.2220 14.76519375402187
UTC large
Height (km)
Speed (km/s)
/
Latitude / Longitude
Inclination (degrees)
Orbital Period (minutes)
Azimuth
Elevation
Range (km)
Doppler Factor

Next 0 passes for location: London (51.5072 / 0.1276)

Sorry there are no passes over London.